STARLINK-34576, 64701

Orbit data source: Space-Track

STARLINK-34576, 64701 is a payload satellite owned by SpaceX/Seattle (US) in LEO that was launched on Sat, 28 Jun 2025 UTC via an FALCON 9 launch vehicle from the Air Force Western Test Range (AFWTR). Payload-class satellites include a variety of spacecraft equipped with specific instruments for various scientific and technological missions. These include communications satellites like Starlink; space stations such as the ISS; scientific satellites like the Hubble; Earth observation satellites from companies like Planet Labs, Umbra, and HawkEye 360; GPS; miniature CubeSats for education and research; and military/defense satellites.

Loading next visibility...
Identifier
64701, 2025-142F
Orbit
LEO
Country
Flag of USUS
Related business
Manufacturer
SpaceX/Seattle
Mission
Operational Commercial Communications
Bus & Motor
STARLINK V2MO, Unknown motor
Mass
575 kg wet, ~530 kg dry
Launch date (UTC)
2025-06-28 (11 months ago)
Launch vehicle
FALCON 9
Launch site
Air Force Western Test Range (AFWTR)
Object type
Payload
Rocket body
Debris
Shape & HBR
Box + 2 Pan, 17.7 m
Radar Cross Section
36.964 m², Large (>1 m²)

Expand to show TLE details & history
Last TLE update: 11 hours ago

TLE from 11 hours ago
0 STARLINK-34576
1 64701U 25142F   26145.32977359  .00004797  00000-0  40945-3 0  9997
2 64701  69.9999 121.0718 0003620 261.2797  98.7952 14.98342298 50955
Epoch: 2026-05-25T07:54Z
TLE epoch observation values (Epoch: 2026-05-25T07:54:52.438Z)
Latitude
-0.00002°
Longitude
119.43418°
Altitude
574.827 km
Speed
7.573 km/s
True Right ascension
08h 04m 17s
True Declination
0° 00' 00"
Sunlit
Object was in daylight at epoch
Visualization orbit readout
Latitude
Unknown
Longitude
Unknown
Altitude
Unknown
Speed
Unknown
Apparent Right ascension
Unknown
Apparent Declination
Unknown
Sunlit
N/A
Visualization observer readout
Local Sidereal Time
03:58:29
Azimuth
Unknown
Elevation
Unknown
Doppler factor
Unknown
Orbital elements
Apogee altitude
572.481 km
Perigee altitude
567.451 km
Semi-major axis
6,948.103 km
Eccentricity
0.00036
Inclination
69.9999°
RAAN
121.0718°
Arg. of periapsis
261.2797°
True anomaly
98.83619°
Mean anomaly
98.7952°
Eccentric anomaly
98.8157°
Mean motion
3.74752 °/min
Orbital period
96.06 mins
BSTAR
0.00040945
Loading maneuver chart data...
Computing Atmospheric mass density...
Loading historical data...
Loading historical data...
Loading historical data...
Loading historical data...
Loading historical data...
Loading historical data...
Loading historical data...

Documentation

Showing up to 5 results
|